Franklin, NC

4:57 AM EDT on September 25, 2017 (GMT -0400)
Franklin

Weather History for K1A5 - March, 2013

Change the Weather History Date:

Thursday, March 14, 2013

  Actual Average (KTOC) Record (KTOC)
Temperature  
Mean Temperature 37 °F -  
Max Temperature 49 °F 64 °F 74 °F (2016)
Min Temperature 25 °F 40 °F 30 °F (2014)
Degree Days  
Heating Degree Days 28    
Moisture  
Dew Point 9 °F    
Average Humidity 38    
Maximum Humidity 61    
Minimum Humidity 12    
Precipitation  
Precipitation 0.00 in - - ()
Sea Level Pressure  
Sea Level Pressure 30.22 in    
Wind  
Wind Speed 6 mph (NW)    
Max Wind Speed 12 mph    
Max Gust Speed 20 mph    
Visibility 10 miles    
Events      
Averages and records for this station are not official NWS values.
T = Trace of Precipitation, MM = Missing Value Source: NWS Daily Summary

Daily Weather History Graph

Daily Weather History Graph

Search for Another Location

Airport or City:

Trip Planner

Search our weather history database for the weather conditions in past years. The results will help you decide how hot, cold, wet, or windy it might be!

Date:

Astronomy

Mar. 14, 2013 Rise Set
Actual Time 7:45 AM EDT 7:40 PM EDT
Civil Twilight 7:20 AM EDT 8:05 PM EDT
Nautical Twilight 6:50 AM EDT 8:35 PM EDT
Astronomical Twilight 6:21 AM EDT 9:05 PM EDT
Moon 9:06 AM EDT (3/14) 10:47 PM EDT (3/14)
Length of Visible Light 12h 45m
Length of Day
11h 55m
Waxing Crescent, 9% of the Moon is Illuminated
Mar 14
Waxing Crescent
Mar 19
First Quarter
Mar 27
Full
Apr 3
Last Quarter
Apr 10
New

Hourly Weather History & Observations

Time (EDT) Temp. Windchill Dew Point Humidity Pressure Visibility Wind Dir Wind Speed Gust Speed Precip Events Conditions
12:15 AM 29.7 °F 20.7 °F 13.5 °F 51% 30.20 in 10.0 mi WNW 10.4 mph - N/A   Clear
12:35 AM 29.5 °F 20.4 °F 13.5 °F 51% 30.20 in 10.0 mi WNW 10.4 mph - N/A   Scattered Clouds
12:55 AM 29.3 °F 21.5 °F 13.6 °F 52% 30.20 in 10.0 mi WNW 8.1 mph - N/A   Scattered Clouds
1:15 AM 29.1 °F 23.0 °F 13.8 °F 53% 30.19 in 10.0 mi NW 5.8 mph - N/A   Scattered Clouds
1:35 AM 28.8 °F 20.9 °F 14.0 °F 54% 30.19 in 10.0 mi NW 8.1 mph - N/A   Clear
1:55 AM 28.4 °F 20.4 °F 14.0 °F 55% 30.19 in 10.0 mi NW 8.1 mph - N/A   Clear
2:15 AM 27.9 °F - 14.4 °F 57% 30.19 in 10.0 mi Calm Calm - N/A   Clear
2:35 AM 27.5 °F 23.6 °F 14.4 °F 58% 30.19 in 10.0 mi NNW 3.5 mph - N/A   Clear
2:55 AM 27.9 °F 19.8 °F 14.4 °F 57% 30.20 in 10.0 mi NW 8.1 mph - N/A   Clear
3:15 AM 27.7 °F 20.4 °F 14.4 °F 57% 30.20 in 10.0 mi NW 6.9 mph - N/A   Clear
3:35 AM 27.9 °F 18.4 °F 14.7 °F 58% 30.21 in 10.0 mi WNW 10.4 mph 19.6 mph N/A   Clear
3:55 AM 27.5 °F 19.3 °F 14.5 °F 58% 30.21 in 10.0 mi WNW 8.1 mph - N/A   Scattered Clouds
4:15 AM 27.1 °F 23.2 °F 14.5 °F 59% 30.21 in 10.0 mi WNW 3.5 mph - N/A   Scattered Clouds
4:35 AM 26.6 °F - 14.2 °F 60% 30.21 in 10.0 mi Calm Calm - N/A   Clear
4:55 AM 26.6 °F 18.2 °F 13.8 °F 59% 30.20 in 10.0 mi NNW 8.1 mph - N/A   Scattered Clouds
5:15 AM 26.2 °F 17.8 °F 13.6 °F 59% 30.20 in 10.0 mi North 8.1 mph - N/A   Clear
5:35 AM 26.4 °F 19.8 °F 13.1 °F 57% 30.21 in 10.0 mi NNW 5.8 mph 17.3 mph N/A   Clear
5:55 AM 26.2 °F 17.1 °F 13.1 °F 58% 30.22 in 10.0 mi NW 9.2 mph 17.3 mph N/A   Clear
6:15 AM 26.2 °F 20.7 °F 13.3 °F 58% 30.23 in 10.0 mi NNW 4.6 mph - N/A   Clear
6:35 AM 26.1 °F 21.9 °F 13.3 °F 59% 30.23 in 10.0 mi WNW 3.5 mph - N/A   Clear
6:55 AM 25.7 °F 21.5 °F 13.3 °F 59% 30.25 in 10.0 mi NNW 3.5 mph - N/A   Clear
7:15 AM 25.7 °F 16.4 °F 13.1 °F 59% 30.25 in 10.0 mi NNW 9.2 mph - N/A   Clear
7:35 AM 25.5 °F 19.9 °F 13.1 °F 59% 30.25 in 10.0 mi NNW 4.6 mph - N/A   Clear
7:55 AM 25.5 °F 21.3 °F 13.1 °F 59% 30.26 in 10.0 mi West 3.5 mph - N/A   Clear
8:15 AM 26.2 °F 20.7 °F 13.1 °F 58% 30.25 in 10.0 mi NW 4.6 mph - N/A   Clear
8:35 AM 26.8 °F 19.3 °F 13.6 °F 58% 30.26 in 10.0 mi NW 6.9 mph - N/A   Clear
8:55 AM 27.7 °F 23.8 °F 13.6 °F 56% 30.26 in 10.0 mi NNW 3.5 mph - N/A   Clear
9:15 AM 29.1 °F 24.1 °F 13.3 °F 52% 30.26 in 10.0 mi NNW 4.6 mph - N/A   Clear
9:35 AM 30.6 °F - 12.6 °F 47% 30.26 in 10.0 mi Calm Calm - N/A   Clear
10:15 AM 33.4 °F 30.4 °F 11.8 °F 41% 30.26 in 10.0 mi NNW 3.5 mph - N/A   Clear
10:35 AM 34.3 °F 27.7 °F 9.5 °F 36% 30.27 in 10.0 mi NNW 8.1 mph - N/A   Clear
10:55 AM 35.6 °F 29.2 °F 10.0 °F 35% 30.27 in 10.0 mi NNW 8.1 mph - N/A   Clear
11:15 AM 36.1 °F 31.4 °F 8.6 °F 32% 30.26 in 10.0 mi NW 5.8 mph - N/A   Clear
11:35 AM 37.9 °F 34.4 °F 7.9 °F 29% 30.27 in 10.0 mi NNW 4.6 mph - N/A   Clear
11:55 AM 39.2 °F 35.9 °F 8.2 °F 28% 30.27 in 10.0 mi NNW 4.6 mph - N/A   Clear
12:15 PM 41.4 °F 38.4 °F 10.2 °F 28% 30.25 in 10.0 mi NNE 4.6 mph - N/A   Clear
12:35 PM 41.2 °F - 7.9 °F 25% 30.26 in 10.0 mi Calm Calm - N/A   Clear
12:55 PM 43.0 °F 41.3 °F 6.4 °F 22% 30.26 in 10.0 mi North 3.5 mph - N/A   Clear
1:15 PM 44.8 °F 41.0 °F 9.0 °F 23% 30.25 in 10.0 mi North 6.9 mph - N/A   Clear
1:35 PM 45.9 °F 42.9 °F 5.5 °F 19% 30.23 in 10.0 mi NNE 5.8 mph - N/A   Clear
1:55 PM 47.8 °F - 9.5 °F 21% 30.23 in 10.0 mi North 9.2 mph - N/A   Clear
2:15 PM 48.4 °F - 7.0 °F 19% 30.22 in 10.0 mi NE 4.6 mph - N/A   Clear
2:35 PM 48.7 °F - 4.8 °F 17% 30.21 in 10.0 mi North 5.8 mph - N/A   Clear
2:55 PM 48.9 °F - 4.3 °F 16% 30.21 in 10.0 mi NW 6.9 mph - N/A   Clear
3:15 PM 48.2 °F - 3.7 °F 16% 30.20 in 10.0 mi WNW 9.2 mph 16.1 mph N/A   Clear
3:35 PM 47.3 °F - 2.3 °F 16% 30.20 in 10.0 mi NW 6.9 mph - N/A   Clear
3:55 PM 48.0 °F - 3.0 °F 16% 30.19 in 10.0 mi NW 6.9 mph - N/A   Clear
4:15 PM 49.1 °F - 1.6 °F 14% 30.18 in 10.0 mi NNW 5.8 mph 16.1 mph N/A   Clear
4:35 PM 48.2 °F - 2.1 °F 15% 30.18 in 10.0 mi NW 5.8 mph - N/A   Clear
5:15 PM 48.7 °F - -3.1 °F 12% 30.19 in 10.0 mi NW 8.1 mph - N/A   Clear
5:35 PM 47.5 °F - 1.4 °F 15% 30.18 in 10.0 mi West 11.5 mph 18.4 mph N/A   Clear
5:55 PM 48.2 °F - -0.8 °F 13% 30.18 in 10.0 mi NW 5.8 mph - N/A   Scattered Clouds
6:15 PM 47.3 °F - 0.3 °F 14% 30.17 in 10.0 mi North 3.5 mph - N/A   Scattered Clouds
6:35 PM 45.9 °F 42.3 °F 0.1 °F 15% 30.18 in 10.0 mi NW 6.9 mph - N/A   Scattered Clouds
6:55 PM 44.6 °F 39.7 °F 1.6 °F 17% 30.18 in 10.0 mi NW 9.2 mph - N/A   Clear
7:15 PM 44.2 °F 40.3 °F 1.2 °F 17% 30.18 in 10.0 mi North 6.9 mph 17.3 mph N/A   Clear
7:35 PM 42.3 °F 36.8 °F 1.2 °F 18% 30.18 in 10.0 mi North 9.2 mph - N/A   Clear
7:55 PM 41.4 °F 36.8 °F 1.9 °F 19% 30.20 in 10.0 mi North 6.9 mph - N/A   Scattered Clouds
8:15 PM 40.6 °F 37.5 °F 3.0 °F 21% 30.19 in 10.0 mi North 4.6 mph - N/A   Clear
8:35 PM 40.3 °F 37.1 °F 2.8 °F 21% 30.19 in 10.0 mi North 4.6 mph - N/A   Clear
8:55 PM 39.9 °F 36.7 °F 2.3 °F 21% 30.20 in 10.0 mi NW 4.6 mph - N/A   Clear
9:15 PM 38.8 °F 36.5 °F 2.8 °F 22% 30.20 in 10.0 mi NW 3.5 mph - N/A   Clear
9:35 PM 39.2 °F 37.0 °F 4.1 °F 23% 30.21 in 10.0 mi NW 3.5 mph - N/A   Clear
9:55 PM 38.8 °F 33.2 °F 5.7 °F 25% 30.23 in 10.0 mi NW 8.1 mph - N/A   Scattered Clouds
10:15 PM 38.5 °F 35.0 °F 6.6 °F 27% 30.23 in 10.0 mi North 4.6 mph - N/A   Scattered Clouds
10:35 PM 39.0 °F - 8.6 °F 29% 30.22 in 10.0 mi Calm Calm - N/A   Overcast
10:55 PM 33.8 °F 28.6 °F 16.0 °F 48% 30.22 in 10.0 mi WSW 5.8 mph - N/A   Mostly Cloudy
11:15 PM 32.2 °F - 16.7 °F 53% 30.21 in 10.0 mi Calm Calm - N/A   Clear
11:35 PM 30.9 °F - 18.5 °F 60% 30.21 in 10.0 mi Calm Calm - N/A   Scattered Clouds
11:55 PM 30.2 °F 25.4 °F 18.3 °F 61% 30.21 in 10.0 mi WSW 4.6 mph - N/A   Clear